Location: Amsterdam
(30.7274°N, 84.4357°W)
Time: 16:45:37
(UTC+00:00)

Injun/Solrad 3 - Pass Details

Date: 20 February 2026
Orbit: 871 x 985 km, 66.8° (Epoch: 11 March)

Event Time Altitude Azimuth Distance (km) Brightness Sun altitude
Rises 01:26:12 0° 340° (NNW) 3,595 11.3 -25.9°
Reaches altitude 10° 01:28:46 10° 345° (NNW) 2,665 10.5 -26.4°
Enters shadow 01:33:42 48° 24° (NNE) 1,229 8.3 -27.5°
Maximum altitude 01:34:53 55° 62° (ENE) 1,139 - -27.7°
Drops below altitude 10° 01:41:06 10° 140° (SE) 2,715 - -29.0°
Sets 01:43:44 0° 145° (SE) 3,668 - -29.6°
